Powrót do katalogu

CXBN

AktywnyNaukaVLEO
NORAD 38762·PAYLOAD·🇺🇸 United States

Wystrzelony Sep 13, 2012 z Vandenberg Space Force Base

Loading…

Następne Przeloty (najbliższe 24 godziny)

TLE

ŚwieżeSource: Space-Track

Epoka: Sep 14, 2026, 14:15 UTC

1 38762U 12048E   26257.59395004  .00005707  00000-0  23108-3 0  9994
2 38762  64.6590 248.2359 0075015 140.4590 220.2044 15.23171848131898

Śledź CXBN w czasie rzeczywistym z AllMySat

Download on the App Store